Time,TemperatureF,DewpointF,PressureIn,WindDirection,WindDirectionDegrees,WindSpeedMPH,WindSpeedGustMPH,Humidity,HourlyPrecipIn,Conditions,Clouds,dailyrainin,SolarRadiationWatts/m^2,SoftwareType,DateUTC
2013-03-20 00:04:00,42.6,38.1,29.55,SSW,200,10.0,12.0,84,0.00,,,0.00,0,Wunderground v.1.15,2013-03-20 07:04:00,
2013-03-20 00:10:00,42.8,38.0,29.55,SSE,164,12.0,19.0,83,0.00,,,0.00,0,Wunderground v.1.15,2013-03-20 07:10:00,
2013-03-20 00:15:00,42.7,37.9,29.55,South,175,12.0,19.0,83,0.00,,,0.00,0,Wunderground v.1.15,2013-03-20 07:15:00,
2013-03-20 00:20:00,42.6,38.1,29.54,SSE,162,12.0,12.0,84,0.00,,,0.00,0,Wunderground v.1.15,2013-03-20 07:20:00,
2013-03-20 00:25:00,42.6,38.1,29.53,ESE,117,13.0,20.0,84,0.00,,,0.00,0,Wunderground v.1.15,2013-03-20 07:25:00,
2013-03-20 00:30:00,42.6,38.1,29.53,SE,143,13.0,13.0,84,0.00,,,0.00,0,Wunderground v.1.15,2013-03-20 07:30:00,
2013-03-20 00:36:00,42.5,38.3,29.52,SSE,162,12.0,15.0,85,0.00,,,0.00,0,Wunderground v.1.15,2013-03-20 07:36:00,
2013-03-20 00:42:00,43.2,38.7,29.52,SSE,159,11.0,19.0,84,0.00,,,0.00,0,Wunderground v.1.15,2013-03-20 07:42:00,
2013-03-20 00:47:00,43.1,38.6,29.51,SSW,201,12.0,22.0,84,0.00,,,0.00,0,Wunderground v.1.15,2013-03-20 07:47:00,
2013-03-20 00:52:00,42.9,38.4,29.52,SE,136,12.0,13.0,84,0.00,,,0.00,0,Wunderground v.1.15,2013-03-20 07:52:00,
2013-03-20 00:58:00,42.7,38.5,29.51,South,172,11.0,20.0,85,0.00,,,0.00,0,Wunderground v.1.15,2013-03-20 07:58:00,
2013-03-20 01:03:00,42.6,38.4,29.51,SE,144,12.0,19.0,85,0.00,,,0.00,0,Wunderground v.1.15,2013-03-20 08:03:00,
2013-03-20 01:09:00,42.5,38.3,29.52,SSW,197,12.0,22.0,85,0.00,,,0.00,0,Wunderground v.1.15,2013-03-20 08:09:00,
2013-03-20 01:14:00,42.2,38.6,29.52,SSW,202,12.0,19.0,87,0.00,,,0.01,0,Wunderground v.1.15,2013-03-20 08:14:00,
2013-03-20 01:19:00,41.9,38.9,29.51,SE,138,13.0,20.0,89,0.00,,,0.01,0,Wunderground v.1.15,2013-03-20 08:19:00,
2013-03-20 01:24:00,41.9,38.9,29.51,SSE,165,13.0,24.0,89,0.00,,,0.01,0,Wunderground v.1.15,2013-03-20 08:24:00,
2013-03-20 01:30:00,42.3,39.3,29.51,SSE,167,12.0,12.0,89,0.04,,,0.02,0,Wunderground v.1.15,2013-03-20 08:30:00,
2013-03-20 01:36:00,42.3,39.3,29.51,South,190,12.0,15.0,89,0.04,,,0.02,0,Wunderground v.1.15,2013-03-20 08:36:00,
2013-03-20 01:42:00,42.2,39.2,29.50,SSE,150,13.0,24.0,89,0.04,,,0.02,0,Wunderground v.1.15,2013-03-20 08:42:00,
2013-03-20 01:48:00,42.2,38.9,29.50,SE,138,13.0,24.0,88,0.00,,,0.02,0,Wunderground v.1.15,2013-03-20 08:48:00,
2013-03-20 01:53:00,42.2,39.2,29.49,SSE,155,14.0,25.0,89,0.00,,,0.02,0,Wunderground v.1.15,2013-03-20 08:53:00,
2013-03-20 01:58:00,42.8,39.8,29.49,SSW,205,14.0,25.0,89,0.00,,,0.02,0,Wunderground v.1.15,2013-03-20 08:58:00,
2013-03-20 02:04:00,43.3,39.7,29.49,SSE,158,13.0,21.0,87,0.00,,,0.02,0,Wunderground v.1.15,2013-03-20 09:04:00,
2013-03-20 02:12:00,42.9,39.6,29.50,SE,145,14.0,14.0,88,0.00,,,0.03,0,Wunderground v.1.15,2013-03-20 09:12:00,
2013-03-20 02:17:00,43.1,40.1,29.49,SSE,158,12.0,15.0,89,0.00,,,0.03,0,Wunderground v.1.15,2013-03-20 09:17:00,
2013-03-20 02:22:00,43.0,39.7,29.49,SSE,150,10.0,18.0,88,0.00,,,0.03,0,Wunderground v.1.15,2013-03-20 09:22:00,
2013-03-20 02:27:00,42.9,39.6,29.49,South,169,10.0,18.0,88,0.00,,,0.03,0,Wunderground v.1.15,2013-03-20 09:27:00,
2013-03-20 02:33:00,43.0,39.4,29.48,SSE,163,10.0,11.0,87,0.00,,,0.03,0,Wunderground v.1.15,2013-03-20 09:33:00,
2013-03-20 02:38:00,42.9,39.6,29.48,South,173,10.0,14.0,88,0.00,,,0.03,0,Wunderground v.1.15,2013-03-20 09:38:00,
2013-03-20 02:43:00,42.6,39.3,29.48,SSE,148,11.0,20.0,88,0.00,,,0.03,0,Wunderground v.1.15,2013-03-20 09:43:00,
2013-03-20 02:49:00,42.5,39.5,29.48,ESE,106,11.0,20.0,89,0.00,,,0.03,0,Wunderground v.1.15,2013-03-20 09:49:00,
2013-03-20 02:54:00,42.4,39.4,29.47,ESE,117,12.0,21.0,89,0.00,,,0.03,0,Wunderground v.1.15,2013-03-20 09:54:00,
2013-03-20 02:59:00,42.6,39.6,29.46,SSE,165,14.0,21.0,89,0.00,,,0.03,0,Wunderground v.1.15,2013-03-20 09:59:00,
2013-03-20 03:04:00,42.8,39.5,29.46,ESE,121,13.0,25.0,88,0.00,,,0.03,0,Wunderground v.1.15,2013-03-20 10:04:00,
2013-03-20 03:10:00,43.1,39.5,29.46,SSE,147,13.0,23.0,87,0.00,,,0.03,0,Wunderground v.1.15,2013-03-20 10:10:00,
2013-03-20 03:16:00,43.1,39.5,29.47,SE,136,12.0,23.0,87,0.00,,,0.03,0,Wunderground v.1.15,2013-03-20 10:16:00,
2013-03-20 03:21:00,42.9,39.3,29.47,SSE,158,11.0,11.0,87,0.00,,,0.03,0,Wunderground v.1.15,2013-03-20 10:21:00,
2013-03-20 03:27:00,43.0,39.7,29.46,SSW,202,12.0,22.0,88,0.00,,,0.03,0,Wunderground v.1.15,2013-03-20 10:27:00,
2013-03-20 03:32:00,43.1,39.5,29.45,South,185,12.0,15.0,87,0.00,,,0.03,0,Wunderground v.1.15,2013-03-20 10:32:00,
2013-03-20 03:38:00,43.2,39.6,29.45,South,178,11.0,15.0,87,0.00,,,0.03,0,Wunderground v.1.15,2013-03-20 10:38:00,
2013-03-20 03:43:00,43.4,39.8,29.45,SSW,207,11.0,14.0,87,0.00,,,0.03,0,Wunderground v.1.15,2013-03-20 10:43:00,
2013-03-20 03:48:00,43.7,40.1,29.45,SSE,150,10.0,14.0,87,0.00,,,0.03,0,Wunderground v.1.15,2013-03-20 10:48:00,
2013-03-20 03:53:00,44.0,40.1,29.44,South,170,11.0,16.0,86,0.00,,,0.03,0,Wunderground v.1.15,2013-03-20 10:53:00,
2013-03-20 03:58:00,44.0,40.1,29.44,SSE,160,11.0,16.0,86,0.00,,,0.03,0,Wunderground v.1.15,2013-03-20 10:58:00,
2013-03-20 04:03:00,44.3,40.4,29.43,SSE,162,9.0,13.0,86,0.00,,,0.03,0,Wunderground v.1.15,2013-03-20 11:03:00,
2013-03-20 04:09:00,44.8,40.6,29.42,SSE,156,9.0,18.0,85,0.00,,,0.03,0,Wunderground v.1.15,2013-03-20 11:09:00,
2013-03-20 04:14:00,44.4,40.2,29.42,South,181,10.0,10.0,85,0.00,,,0.03,0,Wunderground v.1.15,2013-03-20 11:14:00,
2013-03-20 04:20:00,44.1,39.9,29.42,SSW,206,10.0,10.0,85,0.00,,,0.03,0,Wunderground v.1.15,2013-03-20 11:20:00,
2013-03-20 04:26:00,44.1,39.9,29.42,SSE,155,11.0,16.0,85,0.00,,,0.03,0,Wunderground v.1.15,2013-03-20 11:26:00,
2013-03-20 04:32:00,44.2,40.3,29.41,SSE,160,10.0,16.0,86,0.00,,,0.03,0,Wunderground v.1.15,2013-03-20 11:32:00,
2013-03-20 04:37:00,44.1,40.2,29.41,SSE,155,11.0,16.0,86,0.00,,,0.03,0,Wunderground v.1.15,2013-03-20 11:37:00,
2013-03-20 04:43:00,44.2,40.3,29.41,South,186,11.0,11.0,86,0.00,,,0.03,0,Wunderground v.1.15,2013-03-20 11:43:00,
2013-03-20 04:48:00,44.4,40.5,29.41,SE,131,11.0,19.0,86,0.00,,,0.03,0,Wunderground v.1.15,2013-03-20 11:48:00,
2013-03-20 04:53:00,44.2,40.3,29.41,SSE,150,11.0,14.0,86,0.00,,,0.03,0,Wunderground v.1.15,2013-03-20 11:53:00,
2013-03-20 04:58:00,44.6,40.7,29.40,South,186,10.0,17.0,86,0.00,,,0.03,0,Wunderground v.1.15,2013-03-20 11:58:00,
2013-03-20 05:04:00,44.9,40.7,29.39,SW,215,9.0,10.0,85,0.00,,,0.03,0,Wunderground v.1.15,2013-03-20 12:04:00,
2013-03-20 05:10:00,44.3,40.4,29.39,SSW,196,10.0,10.0,86,0.00,,,0.03,0,Wunderground v.1.15,2013-03-20 12:10:00,
2013-03-20 05:15:00,44.1,40.5,29.39,SSE,157,10.0,18.0,87,0.00,,,0.03,0,Wunderground v.1.15,2013-03-20 12:15:00,
2013-03-20 05:21:00,44.1,40.5,29.38,SSE,160,10.0,17.0,87,0.00,,,0.03,0,Wunderground v.1.15,2013-03-20 12:21:00,
2013-03-20 05:26:00,44.7,41.1,29.38,SW,234,11.0,17.0,87,0.00,,,0.03,0,Wunderground v.1.15,2013-03-20 12:26:00,
2013-03-20 05:32:00,44.7,41.1,29.38,SE,144,13.0,13.0,87,0.00,,,0.03,0,Wunderground v.1.15,2013-03-20 12:32:00,
2013-03-20 05:37:00,45.0,41.1,29.37,SE,138,13.0,14.0,86,0.00,,,0.03,0,Wunderground v.1.15,2013-03-20 12:37:00,
2013-03-20 05:42:00,44.7,40.8,29.38,SSE,161,14.0,17.0,86,0.00,,,0.03,0,Wunderground v.1.15,2013-03-20 12:42:00,
2013-03-20 05:48:00,44.7,41.1,29.37,SSE,163,13.0,17.0,87,0.00,,,0.03,0,Wunderground v.1.15,2013-03-20 12:48:00,
2013-03-20 05:53:00,44.9,41.3,29.37,SE,132,11.0,18.0,87,0.00,,,0.03,0,Wunderground v.1.15,2013-03-20 12:53:00,
2013-03-20 05:58:00,44.5,40.9,29.36,South,182,12.0,24.0,87,0.00,,,0.03,0,Wunderground v.1.15,2013-03-20 12:58:00,
2013-03-20 06:03:00,44.5,40.9,29.36,South,190,12.0,16.0,87,0.00,,,0.03,0,Wunderground v.1.15,2013-03-20 13:03:00,
2013-03-20 06:09:00,44.7,41.1,29.36,SE,133,11.0,17.0,87,0.00,,,0.03,0,Wunderground v.1.15,2013-03-20 13:09:00,
2013-03-20 06:14:00,45.0,41.4,29.35,South,180,11.0,17.0,87,0.00,,,0.03,0,Wunderground v.1.15,2013-03-20 13:14:00,
2013-03-20 06:19:00,45.2,41.6,29.35,SSE,167,11.0,17.0,87,0.00,,,0.03,0,Wunderground v.1.15,2013-03-20 13:19:00,
2013-03-20 06:25:00,45.2,41.3,29.35,SE,142,12.0,15.0,86,0.00,,,0.03,0,Wunderground v.1.15,2013-03-20 13:25:00,
2013-03-20 06:30:00,44.9,41.3,29.35,South,178,12.0,12.0,87,0.00,,,0.03,0,Wunderground v.1.15,2013-03-20 13:30:00,
2013-03-20 06:35:00,44.7,41.4,29.36,SE,132,11.0,15.0,88,0.00,,,0.03,0,Wunderground v.1.15,2013-03-20 13:35:00,
2013-03-20 06:40:00,44.1,41.1,29.36,SSW,199,11.0,11.0,89,0.00,,,0.03,0,Wunderground v.1.15,2013-03-20 13:40:00,
2013-03-20 06:45:00,43.8,40.8,29.36,SSE,161,10.0,17.0,89,0.00,,,0.03,0,Wunderground v.1.15,2013-03-20 13:45:00,
2013-03-20 06:50:00,43.9,41.2,29.36,SSE,153,10.0,13.0,90,0.00,,,0.03,0,Wunderground v.1.15,2013-03-20 13:50:00,
2013-03-20 06:56:00,44.0,41.3,29.36,SE,143,11.0,14.0,90,0.00,,,0.03,0,Wunderground v.1.15,2013-03-20 13:56:00,
2013-03-20 07:01:00,44.0,41.3,29.35,ESE,120,10.0,12.0,90,0.00,,,0.03,0,Wunderground v.1.15,2013-03-20 14:01:00,
2013-03-20 07:06:00,44.2,41.5,29.35,SE,138,9.0,13.0,90,0.00,,,0.03,0,Wunderground v.1.15,2013-03-20 14:06:00,
2013-03-20 07:12:00,44.1,41.1,29.35,South,177,9.0,10.0,89,0.00,,,0.03,0,Wunderground v.1.15,2013-03-20 14:12:00,
2013-03-20 07:17:00,43.9,40.9,29.34,SE,140,10.0,12.0,89,0.00,,,0.03,0,Wunderground v.1.15,2013-03-20 14:17:00,
2013-03-20 07:22:00,44.2,41.2,29.33,SSE,151,10.0,22.0,89,0.00,,,0.03,0,Wunderground v.1.15,2013-03-20 14:22:00,
2013-03-20 07:28:00,44.8,41.5,29.33,SSE,164,10.0,22.0,88,0.00,,,0.03,0,Wunderground v.1.15,2013-03-20 14:28:00,
2013-03-20 07:33:00,45.0,41.4,29.33,SE,145,9.0,19.0,87,0.00,,,0.03,0,Wunderground v.1.15,2013-03-20 14:33:00,
2013-03-20 07:39:00,45.1,42.1,29.33,South,186,9.0,19.0,89,0.00,,,0.04,0,Wunderground v.1.15,2013-03-20 14:39:00,
2013-03-20 07:44:00,44.8,42.0,29.32,SSE,167,11.0,18.0,90,0.00,,,0.04,0,Wunderground v.1.15,2013-03-20 14:44:00,
2013-03-20 07:50:00,45.1,42.6,29.33,South,171,12.0,12.0,91,0.06,,,0.05,0,Wunderground v.1.15,2013-03-20 14:50:00,
2013-03-20 07:55:00,45.3,42.8,29.33,ESE,115,11.0,17.0,91,0.06,,,0.05,0,Wunderground v.1.15,2013-03-20 14:55:00,
2013-03-20 08:00:00,45.4,42.9,29.33,SSE,150,9.0,9.0,91,0.05,,,0.05,5,Wunderground v.1.15,2013-03-20 15:00:00,
2013-03-20 08:05:00,45.3,42.5,29.33,SE,139,9.0,11.0,90,0.00,,,0.05,5,Wunderground v.1.15,2013-03-20 15:05:00,
2013-03-20 08:10:00,45.4,42.9,29.34,ESE,118,10.0,10.0,91,0.00,,,0.05,7,Wunderground v.1.15,2013-03-20 15:10:00,
2013-03-20 08:16:00,45.5,42.7,29.33,SSE,147,9.0,14.0,90,0.00,,,0.05,9,Wunderground v.1.15,2013-03-20 15:16:00,
2013-03-20 08:21:00,45.6,42.8,29.32,SE,146,9.0,14.0,90,0.00,,,0.05,12,Wunderground v.1.15,2013-03-20 15:21:00,
2013-03-20 08:27:00,45.9,43.1,29.33,SSW,202,10.0,14.0,90,0.00,,,0.05,12,Wunderground v.1.15,2013-03-20 15:27:00,
2013-03-20 08:33:00,46.5,43.7,29.33,SE,134,9.0,10.0,90,0.00,,,0.05,7,Wunderground v.1.15,2013-03-20 15:33:00,
2013-03-20 08:39:00,46.9,43.8,29.33,South,190,8.0,12.0,89,0.00,,,0.05,9,Wunderground v.1.15,2013-03-20 15:39:00,
2013-03-20 08:45:00,46.9,44.1,29.32,SSE,159,6.0,10.0,90,0.00,,,0.05,11,Wunderground v.1.15,2013-03-20 15:45:00,
2013-03-20 08:51:00,47.9,45.4,29.32,SSE,151,5.0,5.0,91,0.00,,,0.05,21,Wunderground v.1.15,2013-03-20 15:51:00,
2013-03-20 08:56:00,49.8,46.7,29.32,South,172,7.0,11.0,89,0.00,,,0.05,18,Wunderground v.1.15,2013-03-20 15:56:00,
2013-03-20 09:02:00,50.6,46.9,29.32,SE,128,8.0,9.0,87,0.00,,,0.05,53,Wunderground v.1.15,2013-03-20 16:02:00,
2013-03-20 09:07:00,50.9,46.9,29.32,SSW,192,8.0,9.0,86,0.00,,,0.05,77,Wunderground v.1.15,2013-03-20 16:07:00,
2013-03-20 09:12:00,51.1,47.1,29.32,SSE,163,8.0,15.0,86,0.00,,,0.05,104,Wunderground v.1.15,2013-03-20 16:12:00,
2013-03-20 09:18:00,51.2,47.2,29.33,SSW,194,8.0,15.0,86,0.00,,,0.05,74,Wunderground v.1.15,2013-03-20 16:18:00,
2013-03-20 09:24:00,51.3,47.3,29.34,SW,218,7.0,9.0,86,0.00,,,0.05,58,Wunderground v.1.15,2013-03-20 16:24:00,
2013-03-20 09:29:00,51.3,47.3,29.34,SSW,202,7.0,9.0,86,0.00,,,0.05,76,Wunderground v.1.15,2013-03-20 16:29:00,
2013-03-20 09:34:00,51.3,46.9,29.33,SE,132,8.0,11.0,85,0.00,,,0.05,105,Wunderground v.1.15,2013-03-20 16:34:00,
2013-03-20 09:40:00,51.6,46.9,29.33,SSE,164,8.0,8.0,84,0.00,,,0.05,51,Wunderground v.1.15,2013-03-20 16:40:00,
2013-03-20 09:45:00,51.9,47.2,29.33,SSE,166,9.0,14.0,84,0.00,,,0.05,90,Wunderground v.1.15,2013-03-20 16:45:00,
2013-03-20 09:51:00,52.3,47.6,29.33,South,188,8.0,8.0,84,0.00,,,0.05,100,Wunderground v.1.15,2013-03-20 16:51:00,
2013-03-20 09:57:00,52.6,47.6,29.34,SSW,203,8.0,15.0,83,0.00,,,0.05,102,Wunderground v.1.15,2013-03-20 16:57:00,
2013-03-20 10:02:00,52.8,47.5,29.34,SSE,148,8.0,9.0,82,0.00,,,0.05,84,Wunderground v.1.15,2013-03-20 17:02:00,
2013-03-20 10:08:00,52.9,47.2,29.34,SW,225,7.0,12.0,81,0.00,,,0.05,102,Wunderground v.1.15,2013-03-20 17:08:00,
2013-03-20 10:13:00,52.8,47.5,29.35,SSW,200,7.0,8.0,82,0.00,,,0.05,132,Wunderground v.1.15,2013-03-20 17:13:00,
2013-03-20 10:18:00,52.9,47.2,29.35,SSW,194,8.0,16.0,81,0.00,,,0.05,111,Wunderground v.1.15,2013-03-20 17:18:00,
2013-03-20 10:24:00,52.9,47.2,29.36,West,281,8.0,8.0,81,0.00,,,0.05,162,Wunderground v.1.15,2013-03-20 17:24:00,
2013-03-20 10:29:00,52.9,47.2,29.36,SSW,193,6.0,9.0,81,0.00,,,0.05,148,Wunderground v.1.15,2013-03-20 17:29:00,
2013-03-20 10:35:00,52.9,47.2,29.37,South,170,6.0,7.0,81,0.00,,,0.05,155,Wunderground v.1.15,2013-03-20 17:35:00,
2013-03-20 10:40:00,52.8,47.1,29.37,NE,49,6.0,6.0,81,0.00,,,0.05,174,Wunderground v.1.15,2013-03-20 17:40:00,
2013-03-20 10:47:00,52.7,47.0,29.38,WSW,257,7.0,11.0,81,0.00,,,0.05,97,Wunderground v.1.15,2013-03-20 17:47:00,
2013-03-20 10:52:00,52.5,46.8,29.38,West,273,6.0,8.0,81,0.00,,,0.05,83,Wunderground v.1.15,2013-03-20 17:52:00,
2013-03-20 10:57:00,52.2,46.2,29.39,South,169,5.0,8.0,80,0.00,,,0.05,139,Wunderground v.1.15,2013-03-20 17:57:00,
2013-03-20 11:03:00,52.1,46.1,29.39,West,265,6.0,9.0,80,0.00,,,0.05,169,Wunderground v.1.15,2013-03-20 18:03:00,
2013-03-20 11:08:00,51.9,45.6,29.40,SW,221,6.0,10.0,79,0.00,,,0.05,162,Wunderground v.1.15,2013-03-20 18:08:00,
2013-03-20 11:13:00,51.7,45.4,29.40,WNW,302,6.0,9.0,79,0.00,,,0.05,178,Wunderground v.1.15,2013-03-20 18:13:00,
2013-03-20 11:19:00,51.3,45.3,29.40,SSE,155,6.0,16.0,80,0.00,,,0.05,188,Wunderground v.1.15,2013-03-20 18:19:00,
2013-03-20 11:24:00,51.0,45.7,29.41,ESE,123,5.0,11.0,82,0.00,,,0.05,165,Wunderground v.1.15,2013-03-20 18:24:00,
2013-03-20 11:30:00,50.3,45.6,29.40,SE,129,5.0,7.0,84,0.00,,,0.05,79,Wunderground v.1.15,2013-03-20 18:30:00,
2013-03-20 11:35:00,49.4,45.4,29.41,ESE,122,6.0,14.0,86,0.00,,,0.05,111,Wunderground v.1.15,2013-03-20 18:35:00,
2013-03-20 11:41:00,48.8,45.4,29.41,ENE,74,7.0,7.0,88,0.00,,,0.05,97,Wunderground v.1.15,2013-03-20 18:41:00,
2013-03-20 11:47:00,48.5,45.4,29.42,SE,134,4.0,7.0,89,0.00,,,0.06,70,Wunderground v.1.15,2013-03-20 18:47:00,
2013-03-20 11:52:00,48.3,44.9,29.43,WSW,247,3.0,4.0,88,0.00,,,0.06,51,Wunderground v.1.15,2013-03-20 18:52:00,
2013-03-20 11:57:00,47.9,44.8,29.43,WNW,294,5.0,11.0,89,0.29,,,0.09,37,Wunderground v.1.15,2013-03-20 18:57:00,
2013-03-20 12:03:00,47.2,44.1,29.44,WNW,292,7.0,12.0,89,0.30,,,0.13,39,Wunderground v.1.15,2013-03-20 19:03:00,
2013-03-20 12:09:00,46.9,44.4,29.45,NW,315,6.0,12.0,91,0.73,,,0.17,21,Wunderground v.1.15,2013-03-20 19:09:00,
2013-03-20 12:14:00,46.6,44.4,29.46,WNW,286,4.0,9.0,92,0.34,,,0.21,16,Wunderground v.1.15,2013-03-20 19:14:00,
2013-03-20 12:20:00,46.0,43.8,29.47,West,276,4.0,4.0,92,0.49,,,0.26,11,Wunderground v.1.15,2013-03-20 19:20:00,
2013-03-20 12:25:00,45.6,43.7,29.48,WNW,283,4.0,5.0,93,0.35,,,0.31,12,Wunderground v.1.15,2013-03-20 19:25:00,
2013-03-20 12:30:00,45.4,43.5,29.48,NNW,345,4.0,4.0,93,0.24,,,0.34,12,Wunderground v.1.15,2013-03-20 19:30:00,
2013-03-20 12:36:00,45.3,43.4,29.48,NW,325,4.0,6.0,93,0.47,,,0.38,12,Wunderground v.1.15,2013-03-20 19:36:00,
2013-03-20 12:41:00,45.2,43.3,29.49,West,273,4.0,4.0,93,0.57,,,0.43,12,Wunderground v.1.15,2013-03-20 19:41:00,
2013-03-20 12:46:00,44.9,43.0,29.49,NNW,338,3.0,4.0,93,0.22,,,0.45,11,Wunderground v.1.15,2013-03-20 19:46:00,
2013-03-20 12:51:00,44.8,42.9,29.50,SW,219,1.0,1.0,93,0.11,,,0.46,12,Wunderground v.1.15,2013-03-20 19:51:00,
2013-03-20 12:56:00,44.6,43.0,29.50,NW,318,0.0,1.0,94,0.17,,,0.48,12,Wunderground v.1.15,2013-03-20 19:56:00,
2013-03-20 13:01:00,44.6,43.0,29.50,NNW,338,0.0,2.0,94,0.26,,,0.50,16,Wunderground v.1.15,2013-03-20 20:01:00,
2013-03-20 13:07:00,44.8,43.2,29.50,WNW,301,2.0,7.0,94,0.49,,,0.54,19,Wunderground v.1.15,2013-03-20 20:07:00,
2013-03-20 13:13:00,45.0,43.4,29.50,WNW,297,2.0,2.0,94,0.20,,,0.56,23,Wunderground v.1.15,2013-03-20 20:13:00,
2013-03-20 13:18:00,45.1,43.8,29.51,NW,321,1.0,3.0,95,0.15,,,0.58,21,Wunderground v.1.15,2013-03-20 20:18:00,
2013-03-20 13:23:00,45.2,43.9,29.51,WNW,298,2.0,4.0,95,0.12,,,0.59,19,Wunderground v.1.15,2013-03-20 20:23:00,
2013-03-20 13:28:00,45.2,43.9,29.51,NW,315,2.0,4.0,95,0.19,,,0.60,33,Wunderground v.1.15,2013-03-20 20:28:00,
2013-03-20 13:34:00,45.3,43.7,29.51,WNW,292,3.0,4.0,94,0.07,,,0.60,107,Wunderground v.1.15,2013-03-20 20:34:00,
2013-03-20 13:40:00,45.6,44.0,29.51,NNE,17,2.0,2.0,94,0.04,,,0.60,148,Wunderground v.1.15,2013-03-20 20:40:00,
2013-03-20 13:45:00,45.8,44.2,29.51,West,265,2.0,7.0,94,0.00,,,0.60,107,Wunderground v.1.15,2013-03-20 20:45:00,
2013-03-20 13:50:00,46.2,44.3,29.51,SE,134,2.0,2.0,93,0.00,,,0.60,127,Wunderground v.1.15,2013-03-20 20:50:00,
2013-03-20 13:55:00,46.5,44.3,29.52,NNW,338,2.0,3.0,92,0.00,,,0.60,98,Wunderground v.1.15,2013-03-20 20:55:00,
2013-03-20 14:00:00,46.8,44.6,29.52,NW,317,3.0,4.0,92,0.00,,,0.60,35,Wunderground v.1.15,2013-03-20 21:00:00,
2013-03-20 14:05:00,46.8,44.3,29.53,NW,314,4.0,8.0,91,0.00,,,0.61,28,Wunderground v.1.15,2013-03-20 21:05:00,
2013-03-20 14:10:00,46.6,44.1,29.54,NW,311,6.0,6.0,91,0.11,,,0.62,18,Wunderground v.1.15,2013-03-20 21:10:00,
2013-03-20 14:16:00,46.3,43.8,29.54,NW,322,7.0,10.0,91,0.08,,,0.62,40,Wunderground v.1.15,2013-03-20 21:16:00,
2013-03-20 14:22:00,45.8,43.0,29.55,West,279,6.0,7.0,90,0.04,,,0.62,33,Wunderground v.1.15,2013-03-20 21:22:00,
2013-03-20 14:27:00,45.5,42.2,29.55,WNW,296,6.0,15.0,88,0.04,,,0.63,49,Wunderground v.1.15,2013-03-20 21:27:00,
2013-03-20 14:33:00,45.3,42.2,29.55,NW,308,7.0,9.0,89,0.04,,,0.63,63,Wunderground v.1.15,2013-03-20 21:33:00,
2013-03-20 14:38:00,45.3,42.2,29.56,WNW,293,6.0,10.0,89,0.05,,,0.64,144,Wunderground v.1.15,2013-03-20 21:38:00,
2013-03-20 14:43:00,45.7,42.3,29.56,NW,313,6.0,11.0,88,0.05,,,0.64,211,Wunderground v.1.15,2013-03-20 21:43:00,
2013-03-20 14:49:00,46.4,41.8,29.56,West,262,8.0,11.0,84,0.05,,,0.64,457,Wunderground v.1.15,2013-03-20 21:49:00,
2013-03-20 14:54:00,47.4,42.8,29.57,NNW,348,9.0,13.0,84,0.00,,,0.64,714,Wunderground v.1.15,2013-03-20 21:54:00,
2013-03-20 15:00:00,48.3,42.4,29.57,NW,309,10.0,10.0,80,0.00,,,0.64,728,Wunderground v.1.15,2013-03-20 22:00:00,
2013-03-20 15:06:00,48.7,42.5,29.58,NW,319,11.0,15.0,79,0.00,,,0.64,680,Wunderground v.1.15,2013-03-20 22:06:00,
2013-03-20 15:12:00,48.2,40.6,29.59,NNW,334,13.0,20.0,75,0.00,,,0.64,352,Wunderground v.1.15,2013-03-20 22:12:00,
2013-03-20 15:17:00,47.6,41.1,29.61,NW,323,13.0,20.0,78,0.00,,,0.64,258,Wunderground v.1.15,2013-03-20 22:17:00,
2013-03-20 15:23:00,46.8,40.3,29.61,NW,324,11.0,12.0,78,0.00,,,0.64,207,Wunderground v.1.15,2013-03-20 22:23:00,
2013-03-20 15:29:00,46.3,39.8,29.62,NW,308,12.0,17.0,78,0.00,,,0.64,274,Wunderground v.1.15,2013-03-20 22:29:00,
2013-03-20 15:35:00,45.9,39.4,29.63,NW,317,12.0,17.0,78,0.00,,,0.64,236,Wunderground v.1.15,2013-03-20 22:35:00,
2013-03-20 15:40:00,45.6,39.8,29.64,NW,323,11.0,13.0,80,0.00,,,0.64,265,Wunderground v.1.15,2013-03-20 22:40:00,
2013-03-20 15:45:00,45.4,39.3,29.65,West,271,11.0,17.0,79,0.00,,,0.64,264,Wunderground v.1.15,2013-03-20 22:45:00,
2013-03-20 15:50:00,45.5,39.7,29.64,NNW,331,10.0,10.0,80,0.00,,,0.64,199,Wunderground v.1.15,2013-03-20 22:50:00,
2013-03-20 15:56:00,45.2,39.1,29.65,WNW,294,11.0,14.0,79,0.00,,,0.64,114,Wunderground v.1.15,2013-03-20 22:56:00,
2013-03-20 16:01:00,45.1,39.3,29.65,WNW,282,11.0,11.0,80,0.00,,,0.64,102,Wunderground v.1.15,2013-03-20 23:01:00,
2013-03-20 16:07:00,44.8,39.0,29.66,WNW,296,10.0,17.0,80,0.00,,,0.64,97,Wunderground v.1.15,2013-03-20 23:07:00,
2013-03-20 16:12:00,44.7,38.9,29.67,NW,304,11.0,11.0,80,0.00,,,0.64,77,Wunderground v.1.15,2013-03-20 23:12:00,
2013-03-20 16:17:00,44.6,38.8,29.67,WNW,283,12.0,16.0,80,0.00,,,0.64,65,Wunderground v.1.15,2013-03-20 23:17:00,
2013-03-20 16:22:00,44.5,39.0,29.67,NW,310,12.0,18.0,81,0.00,,,0.64,90,Wunderground v.1.15,2013-03-20 23:22:00,
2013-03-20 16:27:00,44.3,38.8,29.68,NW,325,11.0,18.0,81,0.00,,,0.64,134,Wunderground v.1.15,2013-03-20 23:27:00,
2013-03-20 16:33:00,44.2,38.4,29.69,West,275,10.0,16.0,80,0.00,,,0.64,121,Wunderground v.1.15,2013-03-20 23:33:00,
2013-03-20 16:39:00,44.0,38.2,29.69,NW,315,10.0,16.0,80,0.00,,,0.64,102,Wunderground v.1.15,2013-03-20 23:39:00,
2013-03-20 16:44:00,44.0,38.2,29.69,NNW,336,11.0,13.0,80,0.00,,,0.64,107,Wunderground v.1.15,2013-03-20 23:44:00,
2013-03-20 16:50:00,44.0,38.5,29.70,WNW,296,10.0,10.0,81,0.00,,,0.64,88,Wunderground v.1.15,2013-03-20 23:50:00,
2013-03-20 16:55:00,44.1,38.3,29.70,WNW,292,9.0,12.0,80,0.00,,,0.64,76,Wunderground v.1.15,2013-03-20 23:55:00,
2013-03-20 17:00:00,44.1,38.3,29.71,NW,312,9.0,9.0,80,0.00,,,0.64,49,Wunderground v.1.15,2013-03-21 00:00:00,
2013-03-20 17:05:00,44.2,38.7,29.70,WNW,288,7.0,11.0,81,0.00,,,0.64,35,Wunderground v.1.15,2013-03-21 00:05:00,
2013-03-20 17:11:00,44.0,38.2,29.71,WNW,292,7.0,9.0,80,0.00,,,0.64,40,Wunderground v.1.15,2013-03-21 00:11:00,
2013-03-20 17:16:00,43.9,38.1,29.71,SW,225,7.0,9.0,80,0.00,,,0.64,58,Wunderground v.1.15,2013-03-21 00:16:00,
2013-03-20 17:21:00,44.0,37.9,29.72,WNW,293,9.0,9.0,79,0.00,,,0.64,67,Wunderground v.1.15,2013-03-21 00:21:00,
2013-03-20 17:26:00,44.0,36.9,29.72,WNW,284,11.0,18.0,76,0.00,,,0.64,63,Wunderground v.1.15,2013-03-21 00:26:00,
2013-03-20 17:32:00,44.0,36.6,29.72,WNW,292,10.0,14.0,75,0.00,,,0.64,58,Wunderground v.1.15,2013-03-21 00:32:00,
2013-03-20 17:37:00,44.0,36.6,29.72,NW,308,10.0,14.0,75,0.00,,,0.64,65,Wunderground v.1.15,2013-03-21 00:37:00,
2013-03-20 17:42:00,44.1,37.3,29.73,West,276,10.0,16.0,77,0.00,,,0.64,65,Wunderground v.1.15,2013-03-21 00:42:00,
2013-03-20 17:47:00,44.1,36.7,29.73,NW,305,10.0,16.0,75,0.00,,,0.64,60,Wunderground v.1.15,2013-03-21 00:47:00,
2013-03-20 17:52:00,44.1,37.0,29.73,West,279,10.0,18.0,76,0.00,,,0.64,47,Wunderground v.1.15,2013-03-21 00:52:00,
2013-03-20 17:58:00,44.1,37.3,29.73,NNW,339,11.0,18.0,77,0.00,,,0.64,46,Wunderground v.1.15,2013-03-21 00:58:00,
2013-03-20 18:03:00,44.1,37.3,29.73,NW,326,11.0,13.0,77,0.00,,,0.64,46,Wunderground v.1.15,2013-03-21 01:03:00,
2013-03-20 18:09:00,44.0,37.3,29.74,NW,307,10.0,15.0,77,0.00,,,0.64,42,Wunderground v.1.15,2013-03-21 01:09:00,
2013-03-20 18:15:00,44.1,37.7,29.74,WNW,303,10.0,14.0,78,0.00,,,0.64,40,Wunderground v.1.15,2013-03-21 01:15:00,
2013-03-20 18:20:00,44.0,37.6,29.74,NNW,333,9.0,9.0,78,0.00,,,0.64,40,Wunderground v.1.15,2013-03-21 01:20:00,
2013-03-20 18:25:00,44.1,37.0,29.75,WNW,300,9.0,13.0,76,0.00,,,0.64,37,Wunderground v.1.15,2013-03-21 01:25:00,
2013-03-20 18:30:00,44.1,36.7,29.75,NW,313,10.0,11.0,75,0.00,,,0.64,35,Wunderground v.1.15,2013-03-21 01:30:00,
2013-03-20 18:36:00,44.2,36.1,29.75,NW,319,9.0,11.0,73,0.00,,,0.64,39,Wunderground v.1.15,2013-03-21 01:36:00,
2013-03-20 18:41:00,44.1,35.6,29.76,NW,305,10.0,10.0,72,0.00,,,0.64,33,Wunderground v.1.15,2013-03-21 01:41:00,
2013-03-20 18:46:00,44.1,34.9,29.75,WNW,302,10.0,18.0,70,0.00,,,0.64,28,Wunderground v.1.15,2013-03-21 01:46:00,
2013-03-20 18:51:00,44.1,34.6,29.76,NW,323,11.0,18.0,69,0.00,,,0.64,23,Wunderground v.1.15,2013-03-21 01:51:00,
2013-03-20 18:57:00,43.9,34.4,29.76,WNW,291,12.0,18.0,69,0.00,,,0.64,18,Wunderground v.1.15,2013-03-21 01:57:00,
2013-03-20 19:02:00,43.8,33.9,29.76,WNW,298,12.0,12.0,68,0.00,,,0.64,19,Wunderground v.1.15,2013-03-21 02:02:00,
2013-03-20 19:07:00,43.8,33.6,29.77,North,350,14.0,16.0,67,0.00,,,0.64,18,Wunderground v.1.15,2013-03-21 02:07:00,
2013-03-20 19:13:00,43.8,33.6,29.78,NW,309,15.0,19.0,67,0.00,,,0.64,14,Wunderground v.1.15,2013-03-21 02:13:00,
2013-03-20 19:18:00,43.5,34.0,29.78,NNW,332,15.0,19.0,69,0.00,,,0.64,9,Wunderground v.1.15,2013-03-21 02:18:00,
2013-03-20 19:24:00,43.1,35.0,29.79,NW,318,16.0,21.0,73,0.00,,,0.64,0,Wunderground v.1.15,2013-03-21 02:24:00,
2013-03-20 19:30:00,42.3,33.9,29.79,NNW,331,16.0,20.0,72,0.00,,,0.64,0,Wunderground v.1.15,2013-03-21 02:30:00,
2013-03-20 19:35:00,42.1,33.4,29.79,NW,321,17.0,20.0,71,0.00,,,0.64,0,Wunderground v.1.15,2013-03-21 02:35:00,
2013-03-20 19:40:00,42.1,33.4,29.80,NW,322,17.0,17.0,71,0.00,,,0.64,0,Wunderground v.1.15,2013-03-21 02:40:00,
2013-03-20 19:46:00,42.0,33.6,29.79,SW,236,18.0,20.0,72,0.00,,,0.64,0,Wunderground v.1.15,2013-03-21 02:46:00,
2013-03-20 19:52:00,42.0,33.6,29.80,WSW,248,17.0,21.0,72,0.00,,,0.64,0,Wunderground v.1.15,2013-03-21 02:52:00,
2013-03-20 19:57:00,42.0,34.0,29.80,West,259,17.0,29.0,73,0.00,,,0.64,0,Wunderground v.1.15,2013-03-21 02:57:00,
2013-03-20 20:02:00,42.0,34.3,29.79,WSW,252,18.0,18.0,74,0.00,,,0.64,0,Wunderground v.1.15,2013-03-21 03:02:00,
2013-03-20 20:08:00,41.4,33.7,29.80,WSW,247,21.0,28.0,74,0.00,,,0.64,0,Wunderground v.1.15,2013-03-21 03:08:00,
2013-03-20 20:13:00,40.9,33.2,29.81,South,184,22.0,24.0,74,0.00,,,0.64,0,Wunderground v.1.15,2013-03-21 03:13:00,
2013-03-20 20:18:00,41.1,33.8,29.82,SW,234,19.0,27.0,75,0.00,,,0.64,0,Wunderground v.1.15,2013-03-21 03:18:00,
2013-03-20 20:23:00,41.3,34.3,29.82,WSW,246,17.0,19.0,76,0.00,,,0.64,0,Wunderground v.1.15,2013-03-21 03:23:00,
2013-03-20 20:28:00,41.4,33.7,29.83,WSW,242,15.0,21.0,74,0.00,,,0.64,0,Wunderground v.1.15,2013-03-21 03:28:00,
2013-03-20 20:33:00,41.6,33.6,29.84,SSW,212,12.0,14.0,73,0.00,,,0.64,0,Wunderground v.1.15,2013-03-21 03:33:00,
2013-03-20 20:40:00,41.3,33.6,29.85,SSW,199,11.0,11.0,74,0.00,,,0.64,0,Wunderground v.1.15,2013-03-21 03:40:00,
2013-03-20 20:46:00,40.8,33.5,29.85,SW,214,11.0,12.0,75,0.00,,,0.64,0,Wunderground v.1.15,2013-03-21 03:46:00,
2013-03-20 20:51:00,40.4,33.8,29.85,SSW,195,9.0,12.0,77,0.00,,,0.64,0,Wunderground v.1.15,2013-03-21 03:51:00,
2013-03-20 20:56:00,40.7,34.4,29.86,SSW,210,10.0,13.0,78,0.00,,,0.64,0,Wunderground v.1.15,2013-03-21 03:56:00,
2013-03-20 21:00:00,40.6,34.6,29.87,South,186,10.0,10.0,79,0.00,,,0.64,0,Wunderground v.1.15,2013-03-21 04:00:00,
2013-03-20 21:01:00,40.6,34.6,29.86,South,180,11.0,12.0,79,0.00,,,0.64,0,Wunderground v.1.15,2013-03-21 04:01:00,
2013-03-20 21:05:00,40.1,34.4,29.87,SW,226,10.0,12.0,80,0.00,,,0.64,0,Wunderground v.1.15,2013-03-21 04:05:00,
2013-03-20 21:08:00,39.8,34.1,29.87,SW,233,10.0,12.0,80,0.00,,,0.64,0,Wunderground v.1.15,2013-03-21 04:08:00,
2013-03-20 21:13:00,39.8,33.8,29.88,SW,235,8.0,13.0,79,0.00,,,0.64,0,Wunderground v.1.15,2013-03-21 04:13:00,
2013-03-20 21:19:00,39.7,33.7,29.88,SSW,192,8.0,13.0,79,0.00,,,0.64,0,Wunderground v.1.15,2013-03-21 04:19:00,
2013-03-20 21:24:00,40.2,33.6,29.88,SSW,209,8.0,17.0,77,0.00,,,0.64,0,Wunderground v.1.15,2013-03-21 04:24:00,
2013-03-20 21:29:00,40.4,33.8,29.88,WSW,240,7.0,17.0,77,0.00,,,0.64,0,Wunderground v.1.15,2013-03-21 04:29:00,
2013-03-20 21:34:00,40.3,33.3,29.89,SW,219,6.0,7.0,76,0.00,,,0.64,0,Wunderground v.1.15,2013-03-21 04:34:00,
2013-03-20 21:40:00,40.5,33.5,29.89,SW,236,6.0,6.0,76,0.00,,,0.64,0,Wunderground v.1.15,2013-03-21 04:40:00,
2013-03-20 21:46:00,40.6,33.3,29.90,SW,221,5.0,7.0,75,0.00,,,0.64,0,Wunderground v.1.15,2013-03-21 04:46:00,
2013-03-20 21:51:00,40.6,33.3,29.90,SSW,197,4.0,4.0,75,0.00,,,0.64,0,Wunderground v.1.15,2013-03-21 04:51:00,
2013-03-20 21:56:00,40.7,33.4,29.91,SSW,192,3.0,5.0,75,0.00,,,0.64,0,Wunderground v.1.15,2013-03-21 04:56:00,
2013-03-20 22:02:00,41.1,34.8,29.92,SW,224,6.0,10.0,78,0.00,,,0.64,0,Wunderground v.1.15,2013-03-21 05:02:00,
2013-03-20 22:08:00,41.0,33.3,29.92,SW,229,8.0,16.0,74,0.00,,,0.64,0,Wunderground v.1.15,2013-03-21 05:08:00,
2013-03-20 22:13:00,40.6,33.3,29.92,SW,226,8.0,10.0,75,0.00,,,0.64,0,Wunderground v.1.15,2013-03-21 05:13:00,
2013-03-20 22:18:00,40.5,33.2,29.93,SSW,196,7.0,11.0,75,0.00,,,0.64,0,Wunderground v.1.15,2013-03-21 05:18:00,
2013-03-20 22:23:00,40.2,33.2,29.93,WSW,239,5.0,6.0,76,0.00,,,0.64,0,Wunderground v.1.15,2013-03-21 05:23:00,
2013-03-20 22:28:00,40.0,33.4,29.93,WSW,241,4.0,6.0,77,0.00,,,0.64,0,Wunderground v.1.15,2013-03-21 05:28:00,
2013-03-20 22:34:00,40.2,33.9,29.94,SSW,198,5.0,8.0,78,0.00,,,0.64,0,Wunderground v.1.15,2013-03-21 05:34:00,
2013-03-20 22:40:00,40.4,34.1,29.94,SSW,210,6.0,7.0,78,0.00,,,0.64,0,Wunderground v.1.15,2013-03-21 05:40:00,
2013-03-20 22:46:00,40.3,33.7,29.94,SW,222,7.0,18.0,77,0.00,,,0.64,0,Wunderground v.1.15,2013-03-21 05:46:00,
2013-03-20 22:52:00,40.0,33.4,29.95,SW,232,9.0,15.0,77,0.00,,,0.64,0,Wunderground v.1.15,2013-03-21 05:52:00,
2013-03-20 22:57:00,39.8,33.5,29.95,SSW,197,9.0,15.0,78,0.00,,,0.64,0,Wunderground v.1.15,2013-03-21 05:57:00,
2013-03-20 23:03:00,39.7,33.7,29.95,WSW,244,8.0,9.0,79,0.00,,,0.64,0,Wunderground v.1.15,2013-03-21 06:03:00,
2013-03-20 23:09:00,39.7,34.0,29.95,South,185,7.0,10.0,80,0.00,,,0.64,0,Wunderground v.1.15,2013-03-21 06:09:00,
2013-03-20 23:14:00,39.8,34.1,29.95,SSW,208,7.0,7.0,80,0.00,,,0.64,0,Wunderground v.1.15,2013-03-21 06:14:00,
2013-03-20 23:19:00,39.8,34.1,29.95,SW,215,6.0,10.0,80,0.00,,,0.64,0,Wunderground v.1.15,2013-03-21 06:19:00,
2013-03-20 23:24:00,40.0,34.3,29.96,South,179,7.0,12.0,80,0.00,,,0.64,0,Wunderground v.1.15,2013-03-21 06:24:00,
2013-03-20 23:30:00,40.1,34.4,29.96,SSW,212,9.0,9.0,80,0.00,,,0.64,0,Wunderground v.1.15,2013-03-21 06:30:00,
2013-03-20 23:35:00,40.0,34.3,29.96,WSW,248,8.0,9.0,80,0.00,,,0.64,0,Wunderground v.1.15,2013-03-21 06:35:00,
2013-03-20 23:41:00,39.9,33.9,29.96,SW,232,7.0,8.0,79,0.00,,,0.64,0,Wunderground v.1.15,2013-03-21 06:41:00,
2013-03-20 23:46:00,40.1,34.1,29.96,SW,226,8.0,16.0,79,0.00,,,0.64,0,Wunderground v.1.15,2013-03-21 06:46:00,
2013-03-20 23:52:00,39.9,33.9,29.97,SSW,209,6.0,8.0,79,0.00,,,0.64,0,Wunderground v.1.15,2013-03-21 06:52:00,
2013-03-20 23:57:00,40.0,34.0,29.97,SSW,211,5.0,9.0,79,0.00,,,0.00,0,Wunderground v.1.15,2013-03-21 06:57:00,